COSMOS 2251 DEB, 34721

Orbit data source: Space-Track

COSMOS 2251 DEB, 34721 is space debris in LEO originally from a launch on Wed, 16 Jun 1993 UTC launched from the Plesetsk Missile And Space Complex (PKMTR). The debris from Iridium 33, an American commercial communications satellite, has been tracked extensively since its accidental collision with the defunct Russian satellite Cosmos 2251 in 2009. This event, occurring at high speed in low Earth orbit (LEO), generated thousands of pieces of space debris, significantly increasing the risk of further collisions. The Iridium 33 debris cloud has impacted space traffic management and orbital debris mitigation strategies, making it a subject of ongoing study in space situational awareness.

Loading next visibility...
Identifier
34721, 1993-036YP
Orbit
LEO
Country
Flag of CISCIS
Related business
Manufacturer
Unknown
Mission
Spacecraft
Bus & Motor
Unknown
Mass
Unknown
Launch date (UTC)
1993-06-16 (33 years ago)
Launch vehicle
Unknown
Launch site
Plesetsk Missile And Space Complex (PKMTR)
Object type
Payload
Rocket body
Debris
Shape & HBR
Unknown shape, 0.1 m
Radar Cross Section
Small (<0.1 m²)

Expand to show TLE details & history
Last TLE update: 13 hours ago

TLE from 13 hours ago
0 COSMOS 2251 DEB
1 34721U 93036YP  26033.56040156  .00001981  00000-0  11708-2 0  9997
2 34721  73.9196 236.3277 0219666 164.8293 227.6612 13.97067940858730
Epoch: 2026-02-02T13:26Z
TLE epoch observation values (Epoch: 2026-02-02T13:26:58.694Z)
Latitude
29.3965°
Longitude
-88.87284°
Altitude
1,016.905 km
Speed
7.291 km/s
True Right ascension
16h 22m 30s
True Declination
29° 15' 17"
Sunlit
Object was in daylight at epoch
Visualization orbit readout
Latitude
Unknown
Longitude
Unknown
Altitude
Unknown
Speed
Unknown
Apparent Right ascension
Unknown
Apparent Declination
Unknown
Sunlit
N/A
Visualization observer readout
Local Sidereal Time
04:15:57
Azimuth
Unknown
Elevation
Unknown
Doppler factor
Unknown
Orbital elements
Apogee altitude
1,061.553 km
Perigee altitude
741.73 km
Semi-major axis
7,279.778 km
Eccentricity
0.02197
Inclination
73.9196°
RAAN
236.3277°
Arg. of periapsis
164.8293°
True anomaly
225.83468°
Mean anomaly
227.6612°
Eccentric anomaly
226.74456°
Mean motion
3.49435 °/min
Orbital period
103.02 mins
BSTAR
0.0011708
Loading maneuver chart data...
Computing Atmospheric mass density...

Documentation

Showing up to 5 results
|